Retour au catalogue

STARLINK-5926

ActifCommunicationsVLEO
NORAD 55944·PAYLOAD·🇺🇸 United States

Lancé Mar 17, 2023 depuis Vandenberg Space Force Base

Loading…

Prochains Passages (prochaines 24 heures)

TLE

FraisSource: CelesTrak SupGP

Époque: Sep 15, 2026, 01:43 UTC

1 55944C 23037AG  26258.07201389  .00063734  00000+0  53398-2 0  2585
2 55944  70.0016 166.8236 0002949 270.8971 358.0145 14.98308652    16

Suivez STARLINK-5926 en temps réel avec AllMySat

Download on the App Store